Home   Weather   Kaufbeuren   Past weeks

Flag for Germany Past Weather in Kaufbeuren, Bavaria, Germany — Yesterday and Last 2 Weeks

Now
32 °F

Chilly.


Feels Like: 23 °F
Forecast: 22 / 37 °F
Wind: 12 mph from East

Location: Altenstadt Airport

Current Time: Dec 3, 2016 at 5:41:28 am

Latest Report: Dec 3, 2016 at 4:20 am


Visibility: N/A

Pressure: 30.09 "Hg (27.59 "Hg at 693m altitude)

Humidity: 100%

Dew Point: 32 °F

Location of KaufbeurenLocation

Past Weather in Kaufbeuren — Graph

°F

Kaufbeuren Temperature Yesterday

Maximum temperature yesterday: 39 °F (at 12:20 pm)
Minimum temperature yesterday: 27 °F (at 2:20 am)
Average temperature yesterday: 33 °F

High & Low Weather Summary for the Past Weeks

 TemperatureHumidityPressure
High64 °F (Nov 21, 1:20 pm)100% (Nov 18, 4:20 am)30.48 "Hg (Nov 18, 4:20 am)
Low18 °F (Nov 30, 1:20 am)37% (Nov 21, 1:20 pm)29.68 "Hg (Nov 21, 10:20 am)
Average38 °F84%30.03 "Hg
* Reported Nov 18 4:20 am — Dec 3 4:20 am, Kaufbeuren, Weather by CustomWeather, © 2016

Note: Actual official high and low records may vary slightly from our data, if they occured in-between our weather recording intervals... More about our weather records

Advertising

Kaufbeuren Weather History for the Previous 24 Hours

Scroll right to see more
 ConditionsComfort  
Time TempWeatherWind HumidityBarometerVisibility
4:20 am
Sat, Dec 3
32 °FChilly.12 mph100%30.09 "HgN/A
3:20 am34 °FChilly.9 mph93%30.09 "HgN/A
2:20 am34 °FChilly.6 mph93%30.09 "HgN/A
1:20 am34 °FChilly.9 mph100%30.09 "HgN/A
12:20 am34 °FChilly.6 mph100%30.09 "HgN/A
11:20 pm
Fri, Dec 2
36 °FChilly.5 mph93%30.09 "HgN/A
10:20 pm34 °FChilly.2 mph100%30.09 "HgN/A
9:20 pm34 °FChilly.2 mph100%30.12 "HgN/A
8:20 pm36 °FPartly cloudy.2 mph93%30.12 "HgN/A
7:20 pm36 °FLight rain. Passing clouds.1 mph93%30.12 "HgN/A
6:20 pm36 °FPassing clouds.1 mph93%30.12 "HgN/A
5:20 pm36 °FPartly cloudy.3 mph87%30.12 "HgN/A
4:20 pm37 °FBroken clouds.5 mph81%30.12 "HgN/A
3:20 pm39 °FBroken clouds.3 mph75%30.12 "HgN/A
2:20 pm39 °FPartly sunny.9 mph75%30.12 "HgN/A
1:20 pm39 °FBroken clouds.14 mph70%30.12 "HgN/A
12:20 pm39 °FPartly sunny.12 mph70%30.12 "HgN/A
11:20 am37 °FPartly sunny.10 mph75%30.15 "HgN/A
10:20 am36 °FPartly sunny.9 mph75%30.15 "HgN/A
9:20 am30 °FScattered clouds.6 mph80%30.18 "HgN/A
8:20 am28 °FPartly sunny.6 mph80%30.15 "HgN/A
7:20 am28 °FPassing clouds.7 mph86%30.15 "HgN/A
6:20 am27 °FPassing clouds.6 mph86%30.15 "HgN/A
5:20 am27 °FPassing clouds.7 mph80%30.15 "HgN/A
Weather by CustomWeather, © 2016

See weather overviewHow to use our weather pages